When you browse on this site, cookies collect data to enhance your experience and personalize the content and advertising you see.
Visit our Privacy Policy to learn more. By continuing to use the site, you agree to this use of cookies and data.
  • In Österreich
  • Länderverzeichnis
  • Für 7 Tage
  • Wassertemperatur
  • Satellitenkarten
  • Wetterkarte
  • News
  • Widgets
  • user-avatar
    Anmelden

    Stündliche Wetter Milevichi

    Heute, 16 Juli, Dienstag

    Zeit Temperatur Niederschläge Wind Luftdruck Luftfeuchtigkeit
    00:00 +12°C° 0 mm 0 m/S 745 mmHg 85%
    01:00 +12°C° 0 mm 0 m/S 745 mmHg 86%
    02:00 +13°C° 0 mm 1 m/S 745 mmHg 87%
    03:00 +13°C° 0 mm 1 m/S 745 mmHg 88%
    04:00 +12°C° 0 mm 1 m/S 745 mmHg 88%
    05:00 +12°C° 0 mm 1 m/S 744 mmHg 89%
    06:00 +14°C° 0 mm 1 m/S 744 mmHg 85%
    07:00 +16°C° 0 mm 1 m/S 744 mmHg 82%
    08:00 +18°C° 0 mm 2 m/S 744 mmHg 80%
    09:00 +19°C° 0.5 mm 2 m/S 744 mmHg 75%
    10:00 +20°C° 0.5 mm 3 m/S 743 mmHg 70%
    11:00 +21°C° 0.5 mm 3 m/S 743 mmHg 66%
    12:00 +21°C° 0.6 mm 4 m/S 743 mmHg 66%
    13:00 +21°C° 0.6 mm 4 m/S 742 mmHg 67%
    14:00 +21°C° 0.6 mm 4 m/S 742 mmHg 68%
    15:00 +20°C° 1.6 mm 5 m/S 742 mmHg 74%
    16:00 +19°C° 1.6 mm 5 m/S 742 mmHg 79%
    17:00 +16°C° 1.6 mm 5 m/S 742 mmHg 85%
    18:00 +16°C° 0.3 mm 5 m/S 742 mmHg 86%
    19:00 +15°C° 0.3 mm 4 m/S 742 mmHg 87%
    20:00 +14°C° 0.3 mm 3 m/S 741 mmHg 89%
    21:00 +13°C° 0.2 mm 3 m/S 742 mmHg 91%
    22:00 +12°C° 0.2 mm 3 m/S 742 mmHg 93%
    23:00 +11°C° 0.2 mm 3 m/S 742 mmHg 96%

    Morgen, 17 Juli, Mittwoch

    Zeit Temperatur Niederschläge Wind Luftdruck Luftfeuchtigkeit
    00:00 +11°C° 0 mm 3 m/S 742 mmHg 96%
    01:00 +10°C° 0 mm 3 m/S 742 mmHg 96%
    02:00 +10°C° 0 mm 3 m/S 742 mmHg 96%
    03:00 +10°C° 0 mm 3 m/S 742 mmHg 96%
    04:00 +9°C° 0 mm 2 m/S 742 mmHg 95%
    05:00 +9°C° 0 mm 2 m/S 741 mmHg 95%
    06:00 +10°C° 0.2 mm 3 m/S 741 mmHg 93%
    07:00 +12°C° 0.2 mm 3 m/S 741 mmHg 90%
    08:00 +13°C° 0.2 mm 3 m/S 741 mmHg 88%
    09:00 +13°C° 0.5 mm 3 m/S 741 mmHg 87%
    10:00 +14°C° 0.5 mm 2 m/S 741 mmHg 86%
    11:00 +15°C° 0.5 mm 2 m/S 741 mmHg 85%
    12:00 +16°C° 0.7 mm 2 m/S 741 mmHg 80%
    13:00 +17°C° 0.7 mm 2 m/S 741 mmHg 76%
    14:00 +18°C° 0.7 mm 2 m/S 741 mmHg 72%
    15:00 +18°C° 0.3 mm 2 m/S 741 mmHg 71%
    16:00 +18°C° 0.3 mm 3 m/S 741 mmHg 70%
    17:00 +19°C° 0.3 mm 3 m/S 741 mmHg 69%
    18:00 +17°C° 0.3 mm 3 m/S 741 mmHg 76%
    19:00 +16°C° 0.3 mm 3 m/S 741 mmHg 83%
    20:00 +14°C° 0.3 mm 3 m/S 741 mmHg 89%
    21:00 +13°C° 0.1 mm 3 m/S 742 mmHg 92%
    22:00 +13°C° 0.1 mm 3 m/S 742 mmHg 94%
    23:00 +12°C° 0.1 mm 3 m/S 742 mmHg 96%

    übermorgen, 18 Juli, Donnerstag

    Zeit Temperatur Niederschläge Wind Luftdruck Luftfeuchtigkeit
    00:00 +12°C° 0 mm 3 m/S 742 mmHg 97%
    01:00 +12°C° 0 mm 3 m/S 742 mmHg 98%
    02:00 +11°C° 0 mm 3 m/S 742 mmHg 98%
    03:00 +11°C° 0 mm 3 m/S 742 mmHg 98%
    04:00 +11°C° 0 mm 3 m/S 742 mmHg 98%
    05:00 +11°C° 0 mm 3 m/S 742 mmHg 97%
    06:00 +12°C° 0 mm 4 m/S 742 mmHg 95%
    07:00 +13°C° 0 mm 4 m/S 742 mmHg 93%
    08:00 +14°C° 0 mm 4 m/S 743 mmHg 92%
    09:00 +15°C° 0.1 mm 4 m/S 743 mmHg 86%
    10:00 +18°C° 0.1 mm 4 m/S 743 mmHg 81%
    11:00 +19°C° 0.1 mm 5 m/S 743 mmHg 76%
    12:00 +20°C° 1 mm 5 m/S 743 mmHg 76%
    13:00 +20°C° 1 mm 5 m/S 743 mmHg 77%
    14:00 +21°C° 1 mm 5 m/S 743 mmHg 77%
    15:00 +20°C° 0.8 mm 5 m/S 743 mmHg 78%
    16:00 +20°C° 0.8 mm 5 m/S 743 mmHg 79%
    17:00 +20°C° 0.8 mm 6 m/S 744 mmHg 80%
    18:00 +19°C° 0.2 mm 5 m/S 744 mmHg 83%
    19:00 +18°C° 0.2 mm 4 m/S 744 mmHg 86%
    20:00 +17°C° 0.2 mm 3 m/S 744 mmHg 89%
    21:00 +16°C° 0 mm 3 m/S 745 mmHg 90%
    22:00 +14°C° 0 mm 3 m/S 745 mmHg 91%
    23:00 +14°C° 0 mm 3 m/S 745 mmHg 92%

    19 Juli, Freitag

    Zeit Temperatur Niederschläge Wind Luftdruck Luftfeuchtigkeit
    00:00 +13°C° 0 mm 3 m/S 745 mmHg 93%
    01:00 +13°C° 0 mm 3 m/S 746 mmHg 93%
    02:00 +13°C° 0 mm 3 m/S 746 mmHg 94%
    03:00 +12°C° 0 mm 3 m/S 746 mmHg 94%
    04:00 +13°C° 0 mm 2 m/S 746 mmHg 93%
    05:00 +13°C° 0 mm 2 m/S 746 mmHg 93%
    06:00 +14°C° 0 mm 2 m/S 746 mmHg 89%
    07:00 +16°C° 0 mm 2 m/S 747 mmHg 85%
    08:00 +17°C° 0 mm 2 m/S 747 mmHg 82%
    09:00 +19°C° 0 mm 3 m/S 747 mmHg 76%
    10:00 +20°C° 0 mm 3 m/S 747 mmHg 71%
    11:00 +21°C° 0 mm 3 m/S 747 mmHg 66%
    12:00 +22°C° 0.1 mm 3 m/S 747 mmHg 63%
    13:00 +22°C° 0.1 mm 4 m/S 747 mmHg 60%
    14:00 +23°C° 0.1 mm 4 m/S 747 mmHg 57%
    15:00 +23°C° 0 mm 4 m/S 747 mmHg 57%
    16:00 +23°C° 0 mm 4 m/S 747 mmHg 58%
    17:00 +24°C° 0 mm 3 m/S 747 mmHg 59%
    18:00 +21°C° 0 mm 3 m/S 747 mmHg 65%
    19:00 +20°C° 0 mm 3 m/S 747 mmHg 71%
    20:00 +18°C° 0 mm 2 m/S 747 mmHg 77%
    21:00 +17°C° 0 mm 2 m/S 748 mmHg 80%
    22:00 +16°C° 0 mm 1 m/S 748 mmHg 83%
    23:00 +15°C° 0 mm 1 m/S 748 mmHg 86%

    20 Juli, Samstag

    Zeit Temperatur Niederschläge Wind Luftdruck Luftfeuchtigkeit
    00:00 +14°C° 0 mm 1 m/S 748 mmHg 87%
    01:00 +14°C° 0 mm 1 m/S 748 mmHg 87%
    02:00 +13°C° 0 mm 0 m/S 748 mmHg 88%
    03:00 +13°C° 0 mm 0 m/S 748 mmHg 88%
    04:00 +12°C° 0 mm 0 m/S 749 mmHg 87%
    05:00 +12°C° 0 mm 0 m/S 749 mmHg 87%
    06:00 +15°C° 0 mm 1 m/S 749 mmHg 82%
    07:00 +18°C° 0 mm 1 m/S 749 mmHg 77%
    08:00 +20°C° 0 mm 1 m/S 749 mmHg 72%
    09:00 +21°C° 0 mm 1 m/S 749 mmHg 68%
    10:00 +23°C° 0 mm 2 m/S 750 mmHg 63%
    11:00 +24°C° 0 mm 2 m/S 750 mmHg 59%
    12:00 +25°C° 0 mm 2 m/S 750 mmHg 57%
    13:00 +25°C° 0 mm 2 m/S 750 mmHg 55%
    14:00 +26°C° 0 mm 2 m/S 750 mmHg 54%
    15:00 +26°C° 0 mm 2 m/S 750 mmHg 55%
    16:00 +26°C° 0 mm 1 m/S 750 mmHg 57%
    17:00 +25°C° 0 mm 1 m/S 750 mmHg 58%
    18:00 +24°C° 0 mm 1 m/S 750 mmHg 63%
    19:00 +23°C° 0 mm 1 m/S 750 mmHg 68%
    20:00 +21°C° 0 mm 1 m/S 750 mmHg 72%
    21:00 +20°C° 0 mm 1 m/S 750 mmHg 75%
    22:00 +19°C° 0 mm 1 m/S 751 mmHg 78%
    23:00 +16°C° 0 mm 1 m/S 751 mmHg 81%

    21 Juli, Sonntag

    Zeit Temperatur Niederschläge Wind Luftdruck Luftfeuchtigkeit
    00:00 +16°C° 0 mm 1 m/S 751 mmHg 81%
    01:00 +16°C° 0 mm 1 m/S 751 mmHg 81%
    02:00 +15°C° 0 mm 1 m/S 751 mmHg 81%
    03:00 +15°C° 0 mm 1 m/S 751 mmHg 82%
    04:00 +14°C° 0 mm 0 m/S 751 mmHg 82%
    05:00 +14°C° 0 mm 0 m/S 751 mmHg 83%
    06:00 +18°C° 0 mm 1 m/S 751 mmHg 79%
    07:00 +20°C° 0 mm 1 m/S 751 mmHg 74%
    08:00 +21°C° 0 mm 1 m/S 751 mmHg 70%
    09:00 +23°C° 0 mm 1 m/S 752 mmHg 66%
    10:00 +22°C° 0 mm 0 m/S 752 mmHg 62%
    11:00 +24°C° 0 mm 0 m/S 752 mmHg 58%
    12:00 +24°C° 0 mm 0 m/S 752 mmHg 56%
    13:00 +27°C° 0 mm 1 m/S 752 mmHg 54%
    14:00 +27°C° 0 mm 1 m/S 752 mmHg 52%
    15:00 +27°C° 0 mm 1 m/S 752 mmHg 55%
    16:00 +27°C° 0 mm 1 m/S 752 mmHg 57%
    17:00 +26°C° 0 mm 1 m/S 752 mmHg 60%
    18:00 +25°C° 0 mm 1 m/S 752 mmHg 64%
    19:00 +24°C° 0 mm 1 m/S 752 mmHg 67%
    20:00 +22°C° 0 mm 1 m/S 752 mmHg 71%
    21:00 +21°C° 0 mm 1 m/S 752 mmHg 73%
    22:00 +21°C° 0 mm 1 m/S 752 mmHg 74%
    23:00 +20°C° 0 mm 1 m/S 752 mmHg 76%
    Mehr zeigen